Regional Weather Roundup
Issued by NWS

Home | Current Version | Previous Version | Text Only | Print | Product List | Glossary On
Versions: 1 2 3 4 5 6 7 8 9 10 11 12 13 14 15 16 17 18 19 20 21 22 23 24 25 26 27 28 29 30 31 32 33 34 35 36 37 38 39 40 41 42 43 44 45 46 47 48 49 50
000
ASUS43 KTOP 260808
RWRKS

WEATHER ROUNDUP FOR KANSAS
NATIONAL WEATHER SERVICE GOODLAND KS
300 AM CDT SUN APR 26 2015

NOTE:  "FAIR" INDICATES FEW OR NO CLOUDS BELOW 12,000 FEET WITH NO
SIGNIFICANT WEATHER AND/OR OBSTRUCTIONS TO VISIBILITY.

KSZ001>006-013>018-027>032-041>047-260900-
NORTHWEST KANSAS

CITY           SKY/WX    TMP DP  RH WIND       PRES   REMARKS
GOODLAND       FOG       46  46 100 E16       29.84R VSB 1/2
HAYS           CLOUDY    48  43  81 E15       29.83R
HILL CITY      CLOUDY    48  46  93 E14G23    29.83F FOG
RUSSELL        CLOUDY    48  48 100 NE13      29.81R
$$

KSZ061>065-074>080-084>089-260900-
SOUTHWEST KANSAS

CITY           SKY/WX    TMP DP  RH WIND       PRES   REMARKS
DODGE CITY     CLOUDY    51  49  92 E18       29.77S FOG
ELKHART          N/A     53  45  74 E17         N/A
GARDEN CITY    CLOUDY    50  49  96 E21G26    29.74F FOG
GREAT BEND     CLOUDY    50  45  81 E14       29.80F
LIBERAL        CLOUDY    55  48  76 E22G29    29.72F
$$

KSZ066>073-081>083-090>101-260900-
SOUTHEAST KANSAS

CITY           SKY/WX    TMP DP  RH WIND       PRES   REMARKS
CHANUTE        CLOUDY    51  50  96 NE8       29.79R FOG
COFFEYVILLE    CLOUDY    55  51  86 NE10      29.76F
HUTCHINSON     CLOUDY    50  47  89 NE14      29.81S
MEDICINE LODGE   N/A     54  51  90 NE15      29.75S
NEWTON         CLOUDY    48  43  81 NE10G16   29.82S
PARSONS        CLOUDY    54  51  90 VRB6      29.79S
WICHITA INTL   CLOUDY    52  48  86 NE17      29.77F
WICHITA JABRA  CLOUDY    50  47  89 NE12      29.78F
WICHITA MCCONL CLOUDY    51  48  90 NE16G23   29.77F
WINFIELD       CLOUDY    54  50  86 NE13      29.77S
$$

KSZ007>012-019>026-033>040-048>060-102>105-260900-
NORTHEAST KANSAS

CITY           SKY/WX    TMP DP  RH WIND       PRES   REMARKS
CONCORDIA      CLOUDY    48  45  89 E10G20    29.85F
EMPORIA        CLOUDY    49  46  90 NE15      29.80F
LAWRENCE       CLOUDY    50  47  89 NE9       29.84F
MANHATTAN      CLOUDY    49  47  93 NE10      29.84S
MARYSVILLE     CLOUDY    46  45  93 E12       29.87S FOG
OLATHE IND     CLOUDY    49  48  97 NE13      29.83F
OLATHE EXE     CLOUDY    49  47  93 NE12      29.82F FOG
SALINA         CLOUDY    51  45  79 NE12      29.83S
TOPEKA BILLARD CLOUDY    50  47  89 NE7       29.84F FOG
TOPEKA FORBES  CLOUDY    50  47  89 NE9       29.82F
$$


USA.gov is the U.S. government's official web portal to all federal, state and local government web resources and services.